GEC8412 EDDF-VOBL

Flight info

Callsign GEC8412
Flight time N/A
Altitude 37000
Route CINDY8S/18 CINDY Z74 LAMPU DCT NOMBO Y161 MAH DCT VAVOR DCT RADIZ/N0463F390 DCT NEMEK DCT ELTIB/N0470F410 DCT PINDO DCT PAXIS Y707 OBRAN L321 REXUM M872 PMA Y214 RAPMA DCT ULONO DCT DAPOL L692 GISKA N569 UMILA L883 REXOD N563 GUNIM GUNIM7E
Aircraft MD11/H-SDE1E2E3FGHIJ2J3J4J5M1RWXY/LB1D1

Departure

Time 2026-04-16 22:12
Airport Frankfurt Main Airport (EDDF)

Arrival

Time N/A
Airport Kempegowda International Airport Bengaluru (VOBL)
Time Latitude Longitude Altitude Speed Heading
2026-04-16 21:23 50.03963 8.54377 355 ft 0 kts 69°
2026-04-16 22:01 50.03960 8.54365 364 ft 4 kts 70°
2026-04-16 22:02 50.03952 8.54326 364 ft 4 kts 76°
2026-04-16 22:02 50.03947 8.54286 364 ft 4 kts 94°
2026-04-16 22:02 50.03951 8.54255 363 ft 4 kts 136°
2026-04-16 22:02 50.03957 8.54246 362 ft 1 kts 160°
2026-04-16 22:03 50.03936 8.54258 360 ft 4 kts 160°
2026-04-16 22:03 50.03921 8.54266 359 ft 0 kts 159°
2026-04-16 22:07 50.03908 8.54274 362 ft 6 kts 159°
2026-04-16 22:07 50.03855 8.54303 357 ft 7 kts 166°
2026-04-16 22:07 50.03818 8.54279 361 ft 7 kts 224°
2026-04-16 22:07 50.03790 8.54185 361 ft 11 kts 249°
2026-04-16 22:08 50.03764 8.54071 362 ft 11 kts 250°
2026-04-16 22:08 50.03737 8.53958 357 ft 11 kts 250°
2026-04-16 22:08 50.03709 8.53843 356 ft 11 kts 249°
2026-04-16 22:08 50.03679 8.53719 358 ft 14 kts 250°
2026-04-16 22:09 50.03640 8.53565 357 ft 17 kts 247°
2026-04-16 22:09 50.03596 8.53384 352 ft 19 kts 250°
2026-04-16 22:09 50.03552 8.53197 349 ft 18 kts 250°
2026-04-16 22:09 50.03508 8.53012 353 ft 18 kts 250°
2026-04-16 22:10 50.03462 8.52843 352 ft 14 kts 245°
2026-04-16 22:10 50.03435 8.52742 352 ft 9 kts 250°
2026-04-16 22:10 50.03413 8.52654 349 ft 8 kts 244°
2026-04-16 22:10 50.03376 8.52605 354 ft 6 kts 202°
2026-04-16 22:11 50.03335 8.52595 350 ft 6 kts 184°
2026-04-16 22:11 50.03285 8.52594 351 ft 14 kts 180°
2026-04-16 22:11 50.02929 8.52597 345 ft 100 kts 179°
2026-04-16 22:11 50.01946 8.52607 382 ft 178 kts 179°
2026-04-16 22:12 50.00674 8.52639 1378 ft 182 kts 178°
2026-04-16 22:12 49.99384 8.52676 2511 ft 186 kts 178°
2026-04-16 22:12 49.98129 8.52783 3745 ft 182 kts 171°
2026-04-16 22:12 49.96901 8.53474 4644 ft 198 kts 147°
2026-04-16 22:13 49.95912 8.55139 5312 ft 224 kts 121°
2026-04-16 22:13 49.95137 8.57316 6108 ft 234 kts 120°
2026-04-16 22:13 49.94347 8.59571 7009 ft 242 kts 115°
2026-04-16 22:13 49.93952 8.62186 7730 ft 260 kts 95°
2026-04-16 22:14 49.93822 8.65146 8280 ft 287 kts 94°
2026-04-16 22:14 49.93543 8.68255 9271 ft 290 kts 107°
2026-04-16 22:14 49.92621 8.70977 10516 ft 290 kts 130°
2026-04-16 22:14 49.91057 8.73235 10702 ft 326 kts 144°
2026-04-16 22:15 49.89146 8.75432 10932 ft 356 kts 138°
2026-04-16 22:15 49.87527 8.78383 11870 ft 364 kts 126°
2026-04-16 22:15 49.86140 8.81726 12797 ft 374 kts 121°
2026-04-16 22:15 49.84833 8.85260 13757 ft 381 kts 119°
2026-04-16 22:16 49.83542 8.88884 14613 ft 388 kts 119°
2026-04-16 22:16 49.82235 8.92577 15452 ft 394 kts 119°